Regional Weather Roundup
Issued by NWS Cleveland, OH

Home | Current Version | Previous Version | Graphics & Text | Print | Product List | Glossary On
Versions: 1 2 3 4 5 6 7 8 9 10 11 12 13 14 15 16 17 18 19 20 21 22 23 24 25 26 27 28 29 30 31 32 33 34 35 36 37 38 39 40 41 42 43 44 45 46 47 48 49 50
000
ASUS41 KCLE 230700
RWRCLE
OHIO REGIONAL WEATHER ROUNDUP
NATIONAL WEATHER SERVICE WILMINGTON, OH
200 AM EST THU FEB 23 2017

NOTE: "FAIR" INDICATES FEW OR NO CLOUDS BELOW 12,000 FEET WITH NO
SIGNIFICANT WEATHER AND/OR OBSTRUCTIONS TO VISIBILITY.

OHZ001>008-015>018-024>027-034-035-043-044-230800-
   NORTHWEST OHIO

CITY           SKY/WX    TMP DP  RH WIND       PRES   REMARKS
DEFIANCE       MOCLDY    56  53  90 S12       29.70F
FINDLAY        FAIR      56  52  86 S14       29.72F
TOLEDO EXPRESS MOCLDY    57  56  96 S9G20     29.69F
TOLEDO EXEC    CLOUDY    57  55  93 S14       29.70F FOG
LIMA           FAIR      56  55  97 S12       29.74S
$$

OHZ009>014-019>023-028>033-038-089-230800-
   NORTHEAST OHIO

CITY           SKY/WX    TMP DP  RH WIND       PRES   REMARKS
CLE-HOPKINS    CLOUDY    58  52  80 S12       29.77S
CLE-LAKEFRONT  CLOUDY    58  52  80 S13       29.74S
CUY CO. ARPT   NOT AVBL
LORAIN-ELYRIA  CLOUDY    56  51  84 S14       29.75S
ASHTABULA      FAIR      55  52  89 S10       29.76F
AKRON-CANTON   CLOUDY    55  51  86 S9        29.79S FOG
WOOSTER        NOT AVBL
MANSFIELD      CLOUDY    56  54  93 S13G23    29.77R
YOUNGSTOWN     CLOUDY    55  50  83 S9        29.79F
$$

OHZ042-051>053-060>062-070>072-077>081-230800-
  SOUTHWEST OHIO

CITY           SKY/WX    TMP DP  RH WIND       PRES   REMARKS
CINC-COVINGTON FAIR      58  55  90 S7        29.78S
CINC-LUNKEN    FAIR      55  54  96 S5        29.79S
HAMILTON       FAIR      52  52 100 CALM      29.80R
DAYTON         NOT AVBL
WRIGHT-PAT AFB NOT AVBL
DAYTON GENERAL FAIR      54  53  97 S8        29.78R
WILMINGTON     FAIR      55  54  96 S9        29.79R
$$

OHZ036-037-039>041-045>050-054>059-063>069-073>076-082>088-230800-
  CENTRAL AND SOUTHEAST OHIO

CITY           SKY/WX    TMP DP  RH WIND       PRES   REMARKS
COLUMBUS       FAIR      56  53  90 S3        29.79S
OSU AIRPORT    MOCLDY    54  54 100 S7        29.79R FOG
BOLTON FIELD   NOT AVBL
RICKENBACK AFB NOT AVBL
NEWARK         FAIR      55  53  93 SW7       29.79S
MARION         CLOUDY    55  53  93 S13       29.78R FOG
LANCASTER      FAIR      58  54  86 S8        29.80F
ZANESVILLE     CLOUDY    56  53  90 S7        29.81S
NEW PHILLY     CLOUDY    55  53  93 S3        29.81S
$$



USA.gov is the U.S. government's official web portal to all federal, state and local government web resources and services.